Regional Weather Roundup
Issued by NWS State College, PA

Home | Current Version | Previous Version | Text Only | Print | Product List | Glossary Off
Versions: 1 2 3 4 5 6 7 8 9 10 11 12 13 14 15 16 17 18 19 20 21 22 23 24 25 26 27 28 29 30 31 32 33 34 35 36 37 38 39 40 41 42 43 44 45 46 47 48 49 50

223
ASUS41 KCTP 240310
RWRCTP

REGIONAL WEATHER ROUNDUP
NATIONAL WEATHER SERVICE STATE COLLEGE PA
1100 PM EDT SUN JUL 23 2017

Note: "fair" indicates few or no clouds below 12,000 feet with no
significant weather and/or obstructions to visibility.

* = STATION THAT DOES NOT REPORT PRECIPITATION /E.G. RAIN...SNOW...ETC/
    THUNDER OR FOG.

PAZ002>004-007>009-013>016-020>023-029>032-240400-
WESTERN PENNSYLVANIA

CITY           SKY/WX    TMP DP  RH WIND       PRES   REMARKS
ERIE           CLOUDY    73  69  87 S3        29.75F
MEADVILLE      NOT AVBL
FRANKLIN*      CLOUDY    70  63  78 SW6       29.80S
NEW CASTLE     MOCLDY    69  68  96 SW5       29.80S
BEAVER COUNTY  NOT AVBL
BUTLER*        CLOUDY    70  66  88 W5        29.81R
PITTSBURGH INT LGT RAIN  68  67  96 SW7       29.80S
PITTSBURGH     LGT RAIN  68  65  90 SW7       29.81S
INDIANA*       MOCLDY    70  70 100 SW10      29.83F
LATROBE        LGT RAIN  68  68 100 S8        29.83S
WASHINGTON CO* CLOUDY    68  66  94 CALM      29.81F
$$

PAZ004>006-010>012-017>019-024>028-033>037-041-042-045-046-049>053-240400-
CENTRAL PENNSYLVANIA

CITY           SKY/WX    TMP DP  RH WIND       PRES   REMARKS
BRADFORD       TSTM      67  67 100 S14G24    29.83R VSB 3/4
DUBOIS         CLOUDY    67  64  90 SE5       29.80F
CLEARFIELD     CLOUDY    73  69  87 W5        29.81S
JOHNSTOWN      RAIN      69  68  96 SW9       29.85S FOG
ALTOONA        HVY RAIN  71  70  96 SW9       29.82R FOG
STATE COLLEGE  CLOUDY    72  70  93 CALM      29.79S
WILLIAMSPORT   CLOUDY    75  71  87 S17G23    29.75F
SELINSGROVE    CLOUDY    73  72  96 SE5       29.79R
FT INDIANTOWN  CLOUDY    71  71 100 CALM      29.81R
CAPITAL CITY   CLOUDY    74  69  85 SE7       29.80R
HARRISBURG     MOCLDY    73  71  93 SE6       29.80R
YORK           CLOUDY    71  70  96 E3        29.81R
$$

PAZ038>040-043-044-047-048-054-055-060>062-067>071-240400-
EASTERN PENNSYLVANIA

CITY           SKY/WX    TMP DP  RH WIND       PRES   REMARKS
SCRANTON       CLOUDY    73  65  75 CALM      29.82R
MOUNT POCONO   CLOUDY    65  65 100 SE12      29.89R
ALLENTOWN      CLOUDY    72  67  84 SE6       29.83R
QUAKERTOWN*    CLOUDY    70  70 100 SE5       29.86R
READING        CLOUDY    72  71  97 SE10      29.82R
LANCASTER      CLOUDY    73  72  96 SE5       29.82R
COATESVILLE    LGT RAIN  72  72 100 E7        29.85R
POTTSTOWN      LGT RAIN  70  70 100 VRB5      29.85R
BLUE BELL      CLOUDY    68  68 100 E3        29.85R
DOYLESTOWN     CLOUDY    70  69  97 VRB6      29.84R
WILLOW GROVE   NOT AVBL
NORTH PHILA    CLOUDY    73  69  87 E8        29.85R
PHILADELPHIA   CLOUDY    73  69  87 SE8       29.83R
$$




USA.gov is the U.S. government's official web portal to all federal, state and local government web resources and services.